Location: Julian California
(33.0790°N, 116.6010°W)
Time: 08:39:36
(UTC-08:00)

SPOT 5 - Pass Details

Date: 19 May 2017
Orbit: 624 x 815 km, 98.4° (Epoch: 23 November)

Event Time Altitude Azimuth Distance (km) Brightness Sun altitude
Exits shadow 22:45:26 29° 280° (W) 1,143 4.2 -29.9°
Drops below altitude 10° 22:48:36 10° 325° (NW) 1,996 6.1 -30.3°
Sets 22:50:59 0° 335° (NNW) 2,905 7.2 -30.5°
